Theta_e
348 349 348 347 349 350 350 350 348 349 350 350 351 351 351 350 349 349 350 351 352 352 352 351 350 350 349 351 350 349 350 349 351 350 349 351 348 342 340 341 341 340 341 343 346 346 346 346 345 345 345 345 345 345 344 344 344 343 343 344 343 343 343 342 342 342 342 342 343 343 344 344 344 343 344 344 344 344 344 345 344 345 345 345 344
349 349 348 348 348 349 349 349 350 351 349 349 350 351 351 352 351 351 352 351 349 349 350 350 349 351 350 350 349 349 350 350 350 350 350 352 350 345 341 342 342 340 339 340 344 346 346 346 346 346 345 345 346 346 345 345 345 344 344 344 343 344 344 344 344 343 344 344 343 343 344 344 344 344 344 344 344 345 345 345 345 344 344 344 345
352 352 349 349 350 349 349 349 349 350 350 349 350 351 352 352 352 352 352 351 350 350 351 349 348 350 350 350 350 349 349 350 349 350 350 351 351 349 344 342 343 342 341 339 341 344 344 345 346 346 345 346 346 346 346 346 346 346 347 345 345 345 344 344 344 344 344 345 345 344 344 345 345 344 343 344 345 345 345 345 345 345 345 345 345
356 354 350 351 351 350 351 350 349 349 350 349 350 351 352 351 351 352 351 350 351 351 350 349 349 349 349 349 349 349 349 349 349 349 350 350 350 351 348 346 344 343 343 341 341 342 342 342 343 343 343 343 343 344 345 345 346 346 346 346 346 346 345 345 345 345 345 345 345 345 345 345 345 345 345 345 345 345 345 345 345 346 346 345 346
360 358 353 352 352 352 351 350 350 351 351 350 351 352 351 352 352 353 352 350 351 350 349 349 348 348 348 348 348 349 349 348 349 349 351 350 350 349 350 350 347 344 344 343 343 343 343 342 343 342 342 342 342 343 344 344 345 345 345 346 346 345 345 346 345 346 346 346 345 345 346 346 346 346 346 347 347 347 346 346 346 346 346 346 346
359 357 355 353 352 353 352 352 352 353 353 352 352 352 352 352 351 352 352 351 350 350 347 348 348 348 348 348 349 349 349 349 349 350 351 351 351 350 350 351 350 349 346 344 344 344 344 344 344 344 343 344 344 345 344 345 346 346 346 346 346 346 346 347 346 346 346 346 346 347 347 347 347 347 346 346 347 346 346 346 346 346 346 345 345
360 358 357 353 352 353 354 355 355 354 355 355 353 352 353 352 350 350 351 350 350 349 347 348 350 349 348 349 349 350 348 349 350 350 351 352 352 351 351 350 351 351 350 347 346 344 344 344 344 344 344 344 345 346 346 347 347 347 346 347 347 346 347 347 347 347 346 346 347 347 347 347 346 346 346 345 345 345 345 345 345 345 344 345 345
363 362 358 354 353 354 355 356 357 356 358 358 355 353 354 354 353 350 349 347 347 347 347 348 350 349 348 348 348 350 350 350 350 350 351 352 352 351 351 352 352 352 351 350 350 346 344 344 344 345 344 345 345 346 346 347 347 346 346 346 347 347 347 347 347 347 347 347 347 347 347 346 346 346 345 344 344 344 344 344 343 343 344 344 343
363 363 360 356 353 353 355 356 357 359 361 359 355 355 356 356 355 350 346 345 342 343 344 346 347 347 346 345 346 348 349 351 350 350 351 352 352 352 352 353 353 352 350 350 351 349 345 343 343 343 344 345 345 346 346 346 347 347 346 347 348 348 348 347 347 346 347 347 347 347 346 346 346 345 343 342 341 341 340 340 341 340 341 342 341
363 363 362 358 354 354 356 356 358 360 362 359 357 357 357 356 353 348 344 342 341 340 341 343 344 344 344 344 344 345 347 349 350 350 352 352 352 353 353 353 353 353 352 351 351 350 349 346 344 343 344 345 345 345 345 346 346 346 346 347 348 348 348 348 348 347 347 346 346 346 345 345 344 341 339 337 334 331 330 332 332 332 334 335 337
364 364 363 360 357 356 356 357 359 362 362 358 357 358 359 358 352 348 345 343 341 341 341 342 342 342 343 342 343 344 345 347 349 351 352 351 351 352 353 353 354 354 354 353 352 352 352 351 350 349 348 347 346 344 343 344 345 346 346 346 347 347 348 348 349 348 347 346 346 345 345 344 340 335 330 326 321 319 320 322 319 321 325 326 327
362 363 364 363 359 357 359 359 359 361 362 360 358 358 360 360 353 347 345 342 341 341 341 342 341 342 342 342 343 344 345 346 347 349 350 352 351 351 353 353 353 354 353 354 353 353 352 352 351 350 350 350 348 345 343 342 342 343 344 345 346 347 348 348 348 348 346 345 345 344 343 339 331 324 321 317 316 316 316 316 315 317 321 320 319
361 363 364 362 360 359 361 361 359 361 362 361 360 359 360 361 356 349 346 342 340 340 340 341 342 343 343 342 343 344 345 345 346 347 348 351 351 352 352 352 352 352 352 352 351 349 350 350 349 348 348 349 349 348 347 345 343 342 343 343 344 345 346 346 347 347 345 345 345 344 339 329 320 317 317 316 316 317 315 316 315 316 319 317 315
360 361 363 361 360 361 363 362 360 359 361 361 361 361 362 361 355 349 346 343 342 341 341 342 343 343 343 344 344 344 345 345 345 346 347 348 349 351 351 351 350 350 350 349 348 347 347 348 347 347 348 348 348 349 348 349 348 347 343 340 340 341 342 342 345 346 345 345 345 340 328 319 316 317 317 317 316 316 316 316 315 316 316 316 315
359 360 360 359 359 361 362 363 361 359 362 364 363 363 363 360 355 348 345 342 342 342 342 342 344 342 343 346 345 345 346 345 344 344 345 346 347 348 348 348 347 347 347 346 347 347 345 347 347 346 346 346 347 348 348 349 348 348 344 340 336 334 335 337 341 345 346 346 343 333 321 316 317 318 317 317 317 317 316 316 316 317 316 316 316
359 358 358 358 358 359 360 361 360 359 362 363 363 363 361 360 357 350 346 342 340 341 341 342 344 345 345 345 346 346 347 346 344 343 344 344 345 345 343 345 345 344 346 346 346 346 346 347 348 348 347 345 346 346 347 349 347 347 346 342 338 331 327 328 333 340 344 345 343 331 319 317 317 317 317 317 318 317 317 317 317 317 318 317 317
359 358 357 357 358 358 359 358 358 359 361 361 363 362 359 360 359 354 347 344 342 341 342 343 344 346 346 346 347 346 346 345 345 345 346 345 344 342 341 343 344 343 346 346 345 346 345 348 349 350 350 349 347 346 345 347 348 349 349 346 343 334 323 320 324 331 336 341 343 333 320 317 317 317 318 318 319 318 318 318 318 318 319 318 318
359 360 358 357 359 359 359 358 356 358 360 359 360 358 357 358 359 355 349 345 345 342 343 344 345 345 345 345 345 347 347 347 348 349 347 345 342 341 343 344 344 344 346 345 345 347 345 346 349 350 351 351 350 347 346 346 348 348 349 348 345 336 326 318 319 323 327 331 336 331 321 317 317 318 318 319 320 319 319 319 319 319 319 320 319
358 360 360 359 360 360 359 358 356 357 358 358 358 357 356 358 359 357 350 346 347 346 344 343 344 345 344 344 345 346 347 348 350 350 349 348 345 343 343 343 345 345 347 346 345 347 346 346 347 349 349 349 349 349 347 347 347 344 341 337 333 330 326 320 317 319 321 321 324 323 320 317 318 319 320 321 320 321 321 320 319 319 320 321 321
359 361 361 360 362 361 360 359 357 356 356 357 357 356 357 358 359 358 354 349 347 346 347 344 344 345 344 345 346 347 348 348 349 349 350 350 347 346 344 342 343 344 344 344 344 345 345 345 346 346 348 349 349 349 348 347 347 346 341 330 324 323 322 320 319 319 319 319 318 318 318 319 320 321 322 322 322 322 322 321 321 320 321 322 322
360 362 364 362 361 360 359 358 357 356 356 354 355 357 360 362 361 358 356 354 350 346 348 346 344 346 346 347 347 348 349 349 348 349 350 350 348 346 345 344 345 344 343 343 344 343 344 346 345 343 345 348 350 350 349 347 347 349 347 335 324 322 322 321 320 319 319 319 318 319 320 320 322 323 323 323 322 322 322 322 322 322 322 322 323
361 362 364 362 361 359 358 358 356 356 356 354 354 358 361 363 362 360 357 356 354 350 348 346 346 346 347 349 350 351 352 351 351 350 350 350 349 347 346 346 347 346 344 344 344 343 343 344 344 344 345 346 349 350 350 350 348 350 349 341 331 328 326 325 324 322 322 320 320 321 321 322 324 324 324 325 324 324 323 323 322 323 323 323 323
359 359 361 362 361 360 358 356 355 355 356 356 355 356 358 359 359 359 358 357 357 353 350 349 349 348 347 348 348 350 351 350 349 349 349 351 350 348 346 344 344 344 345 345 345 343 344 344 343 344 345 345 346 348 349 350 350 349 347 340 334 332 331 330 329 328 327 326 324 324 323 324 324 325 326 325 325 326 325 325 324 323 324 323 324
356 357 359 360 360 361 359 357 356 356 356 358 356 354 356 357 357 359 360 359 358 357 354 352 352 351 349 349 349 348 348 348 347 347 348 349 349 349 346 343 344 344 344 344 345 344 344 343 343 344 345 345 345 347 348 349 350 349 347 342 336 334 333 333 333 333 332 332 330 330 328 327 326 326 326 325 326 326 326 327 326 325 325 324 324
356 356 357 358 359 361 360 358 358 357 358 358 358 356 356 357 357 358 359 359 359 359 357 355 353 353 351 349 349 346 346 347 345 345 346 347 349 349 347 346 345 346 343 344 344 345 343 342 343 343 343 345 346 348 349 349 350 350 348 346 342 337 335 334 334 334 334 334 334 333 333 332 331 330 328 327 327 327 327 327 327 327 327 327 326
357 355 356 356 358 360 361 360 360 359 359 359 359 359 358 357 357 357 359 359 359 359 358 357 355 355 353 352 350 347 346 346 345 345 344 345 347 347 349 349 348 345 345 345 345 345 344 343 342 343 343 344 345 349 350 350 350 349 348 348 347 344 339 337 336 335 335 335 335 335 334 334 334 333 332 330 329 328 328 328 328 328 328 328 327
357 357 356 356 357 359 361 360 359 360 361 360 360 360 360 359 357 357 358 359 360 360 359 358 357 356 354 353 352 351 349 346 346 346 345 345 346 346 349 352 353 350 345 346 345 345 345 343 342 344 345 344 344 347 349 348 346 346 345 344 344 344 341 336 336 335 336 336 335 335 335 335 335 335 334 333 332 331 330 330 331 330 329 328 328
356 357 357 357 357 359 361 360 360 360 361 361 360 359 360 361 358 359 358 358 359 361 361 360 358 357 357 356 355 354 353 351 349 348 348 349 348 349 350 352 354 354 350 348 348 346 345 343 341 343 344 345 346 347 348 347 345 343 342 341 342 344 343 340 338 336 336 336 336 337 336 336 335 335 335 335 335 334 333 333 332 332 332 331 331
355 356 358 358 357 359 360 360 359 360 360 360 361 360 361 361 360 359 359 357 358 360 361 361 359 358 357 358 358 357 356 355 352 351 351 351 350 349 349 350 352 353 353 352 351 347 345 342 342 345 348 348 349 348 348 349 349 347 346 347 346 348 348 347 346 343 341 339 336 336 336 336 336 336 336 336 335 335 335 335 334 333 333 333 333
354 355 357 359 359 359 360 359 359 359 359 359 360 361 360 361 359 360 360 358 358 360 361 360 359 358 358 357 358 357 357 357 356 354 354 355 353 351 350 349 351 353 354 355 355 350 347 345 343 348 353 352 350 349 349 350 350 348 348 348 347 347 347 347 347 347 345 341 338 337 337 336 336 336 336 337 337 337 336 336 336 335 334 334 334
354 355 356 359 360 361 361 359 359 359 360 360 360 360 361 360 359 358 360 360 360 360 361 361 359 358 360 359 358 359 358 357 357 356 357 357 357 354 352 351 352 353 354 355 356 353 349 348 346 347 350 350 349 349 349 350 350 349 348 348 348 347 345 344 344 345 343 343 341 341 341 339 338 337 337 336 336 336 336 337 337 336 336 335 335
355 356 358 357 358 360 360 359 357 358 359 359 359 360 361 361 360 358 358 360 361 360 360 360 358 358 360 361 361 361 360 359 358 357 357 358 358 357 356 354 354 355 355 356 357 357 353 351 350 350 349 349 350 351 350 350 350 350 349 350 351 349 348 347 347 346 346 346 345 345 345 344 344 343 341 341 339 338 337 337 337 337 336 336 336
356 358 359 358 357 358 357 356 356 355 357 358 358 359 360 361 361 359 357 360 362 362 361 359 359 358 360 362 362 362 361 361 359 359 358 358 359 360 359 357 357 357 358 358 359 359 358 355 355 354 353 353 353 354 354 354 354 354 353 353 353 353 352 352 351 351 351 350 350 350 349 349 348 348 347 346 344 344 342 341 340 339 338 337 337
358 357 359 359 357 356 356 356 355 355 356 358 359 358 360 362 362 360 358 360 362 362 362 362 361 360 361 363 363 362 361 361 361 359 357 356 358 359 359 359 359 358 359 359 359 360 359 359 358 357 356 356 356 356 357 357 357 357 357 357 357 356 356 355 356 356 355 353 353 352 352 352 351 351 350 349 348 348 347 346 345 343 342 341 340
358 359 359 360 358 357 358 356 356 356 356 358 359 359 359 361 362 360 358 359 361 362 362 363 362 361 361 362 363 361 361 360 362 361 359 356 356 355 356 357 358 358 358 358 359 360 360 359 360 358 358 359 358 359 359 358 359 360 361 361 360 359 358 357 358 357 356 355 355 354 354 354 353 353 353 351 351 351 350 349 348 346 346 345 343
358 360 360 360 359 360 359 358 358 358 358 358 360 360 359 360 362 362 359 359 360 361 362 362 361 361 361 362 362 361 359 359 361 362 360 358 357 356 356 356 357 358 357 358 359 361 361 360 360 360 360 361 361 360 360 360 360 361 361 361 361 361 360 360 359 359 359 358 357 357 357 356 356 355 354 353 352 351 351 350 349 349 348 347 346
357 360 360 361 361 362 361 361 361 361 360 360 360 360 359 360 361 362 361 359 360 361 362 362 361 360 361 361 361 360 359 359 361 361 361 360 359 358 358 358 359 360 360 360 361 362 362 362 361 361 360 361 361 361 360 361 360 360 360 360 361 361 361 361 361 361 360 360 359 359 359 358 357 357 355 355 354 353 352 352 351 350 349 349 348
356 359 361 360 361 363 364 362 362 362 363 363 362 361 359 359 360 361 360 360 359 360 361 362 362 361 360 360 360 360 360 359 360 360 360 360 361 361 361 360 360 360 361 362 362 362 362 361 361 360 360 360 360 359 360 359 359 359 359 359 359 360 361 362 362 362 362 360 359 359 358 358 358 357 357 356 355 354 354 353 353 351 351 350 350
356 357 359 360 360 363 365 364 363 363 365 364 364 364 361 358 360 362 360 359 359 360 360 361 361 359 359 360 360 359 360 360 360 360 359 360 361 362 363 363 363 362 362 362 361 361 362 361 361 360 360 360 359 359 358 358 359 358 358 359 361 361 362 362 363 364 363 361 360 358 358 358 357 357 357 356 356 356 354 354 353 353 352 351 351
357 355 357 360 360 362 365 365 363 364 365 366 365 366 364 360 359 360 362 359 358 358 360 361 360 357 356 356 357 358 358 360 360 360 360 360 361 361 362 363 363 364 363 363 362 362 362 361 360 360 360 359 358 359 358 357 358 358 359 360 363 364 364 364 363 363 362 361 360 358 358 358 357 358 357 357 356 355 353 351 351 352 352 352 352
358 356 355 357 359 361 363 365 364 363 365 367 366 366 366 364 360 359 362 362 359 358 359 359 359 357 354 352 352 353 355 357 360 360 359 359 360 361 361 363 363 364 364 363 363 362 362 361 360 360 359 358 358 357 357 358 358 359 362 363 365 365 363 362 361 360 360 360 358 358 358 357 356 354 353 354 353 352 351 350 350 352 351 352 353
359 356 355 355 358 360 362 364 365 363 363 365 366 366 366 365 363 360 360 363 362 359 357 359 358 356 354 351 350 350 351 354 357 358 358 358 357 355 354 357 361 364 365 365 363 362 362 361 360 360 358 358 357 358 359 359 359 362 365 365 364 363 360 360 359 359 358 359 358 359 357 354 353 351 351 352 352 351 351 351 351 352 351 351 351
360 358 356 355 356 359 361 363 364 364 363 364 365 365 363 363 364 362 359 361 363 361 359 358 357 355 354 352 351 349 350 353 355 356 356 356 354 352 348 347 351 358 362 364 364 363 362 362 361 360 358 359 359 360 360 360 361 365 366 365 362 360 359 358 357 357 358 357 357 357 354 352 352 352 352 351 350 350 350 351 351 350 349 350 350
362 360 358 358 357 358 360 362 363 364 364 363 364 364 363 361 361 362 360 359 361 362 361 358 357 357 356 354 352 350 349 352 356 357 357 357 356 354 351 348 348 349 351 354 356 359 362 363 362 360 360 360 360 361 362 362 363 365 365 363 359 358 358 358 357 358 355 352 352 354 353 352 353 352 351 350 349 349 349 348 348 348 348 349 349
364 362 361 359 359 359 359 360 362 363 363 363 362 363 363 360 357 358 360 359 359 360 360 359 358 357 357 355 353 351 348 349 353 357 360 362 362 360 358 356 354 351 349 349 351 353 357 359 361 361 361 360 361 362 363 364 365 365 364 361 358 356 357 356 356 355 350 346 350 354 355 354 353 350 349 349 349 348 347 348 348 347 347 347 346
365 364 362 361 362 361 360 361 361 363 363 363 363 362 362 361 358 355 356 358 358 358 359 359 358 358 357 358 356 356 353 350 352 355 360 363 365 365 364 362 361 358 355 355 354 354 355 356 359 361 361 361 363 363 363 363 364 363 362 360 358 356 354 353 353 352 351 350 352 354 354 351 348 347 347 347 348 347 347 347 346 345 345 345 345
366 367 365 363 363 363 362 361 361 363 364 363 363 363 361 361 359 357 355 356 356 357 358 359 360 360 360 360 359 358 356 356 354 354 359 363 365 367 367 367 365 364 363 363 361 359 359 359 359 360 361 362 363 363 363 362 362 361 359 357 356 355 353 353 352 352 352 350 348 347 347 346 344 344 344 344 345 346 345 345 344 344 344 343 343
366 367 366 365 365 365 364 362 361 362 364 363 363 363 362 361 359 357 357 357 357 357 357 359 361 362 362 362 362 361 360 361 360 358 358 361 365 367 368 367 366 365 365 364 363 361 361 360 360 359 360 361 361 361 360 360 361 359 355 354 352 351 351 351 349 350 348 344 342 343 344 345 344 343 343 343 343 343 342 342 342 343 342 341 340
363 366 367 365 365 365 365 364 363 362 362 363 362 362 362 362 360 358 358 359 360 359 358 359 361 362 363 363 364 364 363 363 363 363 361 361 363 365 366 365 365 364 363 361 361 360 359 358 359 359 359 360 359 360 360 361 358 349 345 348 349 347 347 349 348 347 343 340 342 344 344 344 343 342 342 341 341 340 340 340 341 340 338 338 338
361 363 365 366 365 365 366 365 364 363 362 361 362 361 362 362 360 359 359 360 361 361 361 361 362 362 363 363 363 364 365 365 365 364 363 363 363 365 365 364 363 364 363 360 358 359 359 359 359 359 359 359 359 360 360 357 349 340 339 345 347 346 346 346 345 342 339 339 342 342 340 342 341 340 340 340 339 339 339 339 339 337 336 337 338
361 360 362 365 365 365 365 364 364 364 362 361 361 362 361 361 360 359 360 361 362 362 362 362 362 363 363 364 364 363 363 365 365 365 364 364 364 365 366 365 364 364 361 359 359 361 361 361 361 361 361 360 361 360 357 351 344 340 341 343 346 347 345 341 339 339 339 340 340 338 337 339 339 338 338 338 337 338 338 338 337 337 337 337 337
Wind_Speed
18 17 11 8 6 7 8 7 7 8 7 7 8 9 8 8 9 10 11 10 10 9 5 3 5 6 7 6 7 8 8 8 8 9 10 10 10 8 8 8 8 7 7 7 7 7 6 6 5 5 5 5 5 5 5 4 4 3 3 2 2 1 1 2 2 2 3 3 4 4 4 4 5 5 5 6 6 6 7 7 7 7 7 8 8
18 20 17 12 8 6 7 8 8 8 8 7 6 7 7 7 8 9 10 9 9 10 6 4 5 5 7 6 7 7 8 8 7 8 9 9 9 8 7 7 7 6 6 7 7 7 6 5 5 4 4 4 4 3 3 3 2 2 1 0 0 1 1 2 2 3 3 3 4 4 4 5 5 6 6 6 7 7 7 7 7 8 8 8 8
14 15 16 17 16 12 10 9 9 7 7 9 8 8 8 7 8 9 10 10 9 9 8 7 6 6 6 6 6 7 7 7 7 7 8 8 8 8 6 5 5 5 5 6 6 6 6 5 5 4 4 3 3 3 2 2 1 1 1 1 1 1 2 3 3 3 3 4 4 5 5 6 6 7 7 7 7 7 7 8 8 8 8 8 8
9 9 12 15 17 15 13 12 10 8 7 10 11 9 10 8 8 10 10 10 10 9 7 6 6 6 7 7 6 7 6 5 6 7 6 6 8 7 6 5 4 4 4 4 5 5 5 5 5 4 4 4 3 3 3 2 2 1 2 2 2 2 3 3 3 4 4 5 5 5 6 6 7 7 7 7 8 8 8 8 8 8 8 8 8
6 6 7 9 12 12 13 13 12 11 9 12 14 12 10 9 7 8 9 8 9 9 6 6 6 6 7 7 6 7 6 5 5 6 5 6 7 6 6 6 4 4 4 4 4 4 4 4 4 4 4 4 3 3 3 2 2 2 2 3 2 2 3 3 4 4 4 5 5 6 6 6 6 7 7 7 8 8 8 8 8 7 7 7 7
5 5 6 8 9 8 9 10 10 9 8 9 11 12 12 11 8 6 8 8 8 10 8 6 6 6 6 7 7 6 5 5 5 5 5 5 6 6 6 6 5 4 5 4 4 4 4 4 4 4 4 4 4 3 3 3 3 3 3 3 3 3 3 4 4 4 5 5 5 5 6 6 6 7 7 7 7 7 7 7 7 7 7 6 6
4 3 4 6 7 7 8 8 7 7 6 5 6 8 9 11 11 7 6 7 7 9 8 7 7 7 7 7 6 6 6 5 5 5 5 5 5 6 6 5 5 5 6 5 4 4 5 5 5 5 5 4 4 4 4 4 5 5 4 4 4 4 5 5 5 5 5 5 5 5 6 6 6 6 7 7 7 7 7 7 6 7 6 6 5
4 3 3 4 6 8 9 7 7 7 5 4 5 5 6 8 9 7 7 8 7 7 7 5 6 6 7 6 6 5 5 5 5 5 5 6 6 6 6 6 6 6 6 6 6 5 5 6 6 6 6 5 5 5 5 5 5 5 5 5 5 5 5 5 5 5 5 5 5 5 5 6 6 6 6 7 7 6 7 7 7 7 6 5 5
4 3 1 4 6 7 8 7 6 6 4 4 5 5 5 6 6 6 6 6 7 8 7 6 6 6 6 6 6 5 4 4 4 5 5 5 5 6 6 7 7 7 7 6 6 6 5 6 6 6 6 5 5 4 5 5 5 5 4 4 4 5 5 5 5 5 5 5 5 5 5 6 6 7 7 7 7 7 7 7 7 6 5 4 4
4 3 1 2 5 6 8 7 6 5 3 4 5 5 5 6 6 6 4 3 4 6 7 7 5 5 6 6 6 5 4 4 3 4 4 4 4 5 5 6 6 6 6 6 6 6 6 5 5 5 5 4 4 4 4 4 4 4 4 4 4 4 4 5 5 4 4 4 5 5 5 6 6 7 6 6 6 6 6 5 5 4 4 4 3
5 4 2 2 4 6 7 6 6 5 3 4 5 5 6 5 5 5 4 4 4 5 6 6 5 5 5 6 6 5 4 3 2 2 3 3 4 4 5 5 5 5 5 5 5 5 6 4 3 4 4 3 3 3 3 3 4 4 4 4 5 5 5 4 5 5 5 5 5 6 6 6 6 6 5 4 4 4 3 3 3 4 3 3 2
5 4 3 2 3 5 5 5 5 5 4 4 4 5 5 5 5 4 4 5 5 4 5 5 5 5 3 4 5 4 3 2 1 2 2 2 3 4 4 4 4 4 3 3 3 3 4 3 2 3 3 3 2 2 3 3 4 4 4 5 5 5 5 5 5 5 5 5 6 6 6 6 6 5 4 3 3 3 3 3 3 3 3 2 2
6 5 4 3 3 4 6 6 5 5 5 4 4 5 5 5 5 3 3 4 5 5 5 4 5 5 3 3 3 3 3 3 2 3 2 2 3 3 3 4 4 3 3 2 2 3 3 3 2 2 3 3 3 2 2 2 3 4 4 5 5 6 6 5 5 6 6 6 6 6 5 5 4 4 4 4 4 3 3 3 3 3 2 2 2
6 6 5 4 3 3 4 5 5 5 5 4 4 4 4 4 5 4 4 3 3 4 5 3 5 6 5 2 3 3 1 3 4 4 4 3 3 3 3 3 3 3 3 3 3 2 3 3 2 2 2 2 2 2 3 2 3 4 4 5 5 6 6 6 5 6 6 5 6 6 5 4 4 4 5 4 4 4 4 3 3 3 2 2 2
7 7 6 5 4 3 3 5 5 4 5 4 4 3 3 4 4 4 5 6 4 4 3 2 2 5 6 1 2 3 1 3 4 4 4 3 3 5 3 3 4 3 3 3 2 2 2 3 2 1 1 1 2 3 2 4 5 5 5 5 5 6 7 6 6 6 6 6 7 6 4 5 5 5 5 4 4 4 4 4 4 4 3 3 3
8 7 7 6 5 4 3 4 4 4 4 4 4 3 3 4 4 3 2 5 7 7 4 0 4 4 4 2 2 3 1 3 4 2 3 3 3 5 3 3 5 3 2 3 2 2 2 3 3 2 2 1 2 3 3 4 6 5 5 5 6 6 6 6 6 7 7 7 9 8 6 6 6 6 6 5 5 4 4 4 5 5 5 5 5
8 8 7 6 6 5 4 4 4 5 4 3 4 3 3 3 4 4 2 2 6 8 5 3 3 3 2 2 2 2 2 3 4 2 1 2 3 5 4 3 6 4 1 3 3 2 2 4 3 3 3 2 2 2 3 4 4 4 5 6 6 6 6 5 6 7 7 8 9 9 7 7 7 6 6 6 6 5 5 6 6 6 6 7 7
9 8 8 7 7 6 5 4 4 5 4 3 4 3 3 3 3 5 4 2 4 6 6 5 4 3 2 2 1 3 3 3 3 2 2 3 1 4 4 4 6 5 2 3 4 3 2 3 4 4 3 3 3 3 3 4 4 4 6 8 9 7 7 7 6 7 8 8 9 9 8 8 7 7 7 7 7 7 7 7 8 8 8 8 9
9 9 8 7 7 6 6 5 4 5 5 5 4 3 4 5 5 5 4 4 4 4 6 7 5 4 3 3 1 4 4 2 2 2 2 3 2 1 3 4 5 5 4 3 4 5 3 2 3 5 4 4 4 4 3 4 5 6 7 9 9 9 8 8 7 8 8 9 9 10 9 9 9 8 8 8 9 9 9 9 9 10 10 10 10
10 9 9 8 7 7 6 6 5 5 5 5 5 3 4 5 5 5 4 5 6 4 4 5 5 5 3 2 2 3 2 2 3 2 1 2 2 1 1 2 2 2 2 1 2 4 4 3 2 3 4 5 5 4 5 5 6 6 7 7 7 8 8 8 8 8 9 10 10 11 11 11 10 10 10 10 10 10 11 11 11 11 11 11 12
10 10 9 9 8 8 7 7 6 6 6 5 5 4 5 4 4 6 6 6 6 5 3 2 2 4 5 2 1 1 1 1 2 1 1 1 1 1 2 2 1 2 1 1 1 0 2 4 3 3 4 6 6 5 5 6 7 7 8 7 6 7 7 8 9 9 10 10 11 12 12 12 12 12 12 12 12 12 12 12 13 13 13 13 13
11 11 10 10 10 9 9 8 8 7 6 5 5 5 5 5 5 6 6 6 6 6 5 4 1 3 4 3 2 1 1 1 1 2 1 1 1 1 1 2 2 1 0 1 1 3 3 3 4 4 4 4 6 6 6 7 7 8 9 9 7 7 8 8 9 9 10 10 11 12 13 13 14 14 14 13 13 13 14 14 14 14 15 15 15
11 12 12 11 11 10 10 9 8 8 7 6 5 5 5 6 6 6 6 6 6 6 6 5 4 3 3 4 3 2 2 1 0 2 1 0 1 3 2 2 2 1 1 1 2 4 4 3 4 4 2 3 5 6 7 8 8 10 12 12 10 10 10 10 10 10 11 11 12 13 14 14 15 15 16 16 16 16 16 16 16 16 16 16 17
12 12 12 12 12 11 10 9 9 8 7 7 6 6 5 5 6 6 6 6 6 6 6 6 6 5 5 5 5 4 3 2 0 1 1 1 1 3 2 4 2 1 1 1 3 4 4 4 4 3 3 4 5 5 7 8 9 12 14 14 13 13 13 13 13 13 13 13 14 14 15 16 17 17 18 18 19 19 19 18 18 18 18 18 18
13 13 12 12 13 12 11 10 9 8 8 7 6 6 5 4 6 6 6 6 6 7 6 6 7 6 5 4 4 3 3 3 1 1 2 2 2 4 3 4 3 2 2 2 2 3 4 3 3 3 2 4 5 6 7 8 10 14 15 15 15 15 16 16 17 17 17 17 17 17 18 18 19 19 20 21 21 21 21 21 21 21 20 20 20
15 14 13 12 12 13 12 11 10 9 8 8 7 6 6 5 5 6 6 6 6 7 6 6 6 6 4 3 2 2 2 2 3 2 2 2 2 2 3 3 5 3 1 1 2 3 2 2 2 3 3 4 5 6 7 8 9 13 14 15 17 18 18 19 19 20 20 21 21 21 22 22 22 22 22 23 23 23 24 24 24 24 23 23 23
15 14 14 13 13 13 13 12 11 10 9 9 8 7 7 7 6 6 7 6 7 7 6 6 6 6 5 4 3 2 2 2 2 2 1 1 1 2 2 2 4 3 2 2 2 3 3 2 3 4 4 5 5 6 8 8 9 13 15 15 18 20 22 22 21 22 23 24 24 25 25 25 25 25 25 25 25 26 26 26 27 27 26 26 26
15 15 15 15 14 13 13 13 12 12 11 10 9 9 8 8 8 8 8 7 7 7 7 7 6 6 6 5 4 3 2 1 1 1 1 1 1 1 1 2 2 3 3 3 3 2 2 3 5 6 6 6 6 6 9 10 11 13 15 16 17 19 21 23 23 23 24 24 26 27 27 28 28 28 29 29 29 29 30 30 30 30 29 29 29
15 15 16 16 15 15 14 13 13 13 12 11 11 10 10 9 9 9 9 8 8 8 7 7 7 7 6 6 6 4 3 2 2 2 2 2 2 3 3 4 3 3 2 2 3 4 4 6 4 7 7 6 7 8 9 11 12 13 14 15 16 18 20 22 24 24 24 25 25 26 27 29 30 31 31 32 33 33 34 34 33 33 33 32 32
16 16 16 16 16 16 15 14 13 13 13 13 12 11 11 10 10 10 10 9 8 8 8 8 7 7 7 6 6 5 4 4 4 4 4 4 4 4 5 5 5 4 4 3 3 5 6 7 6 4 4 4 7 10 11 11 13 15 16 16 18 19 20 22 24 26 27 27 27 27 27 29 30 31 33 34 35 36 37 37 37 37 37 37 36
18 17 17 17 17 17 16 15 14 14 14 13 13 13 12 11 11 10 10 10 10 9 9 9 8 8 7 7 6 6 5 5 5 5 5 5 5 5 6 6 6 6 6 5 5 5 6 8 9 8 8 8 10 11 12 13 14 17 18 20 21 21 22 23 24 26 27 28 28 28 28 29 30 31 33 34 36 37 38 39 40 40 41 41 41
19 19 19 18 18 18 17 17 16 15 15 14 13 13 13 12 11 11 11 11 11 11 10 10 9 8 8 8 7 7 6 6 6 6 7 7 7 7 7 7 8 8 8 7 7 7 9 10 11 12 11 12 12 13 14 15 15 17 20 22 22 23 25 26 26 26 26 26 26 27 28 29 30 31 32 33 35 36 38 39 41 42 43 44 44
20 20 20 20 19 19 18 17 17 16 16 15 14 14 13 13 12 11 11 11 12 11 11 11 10 9 9 9 9 8 8 8 8 8 8 8 9 8 8 8 9 9 9 9 9 10 11 11 12 13 12 13 14 14 15 16 16 16 18 20 21 22 24 26 26 25 25 26 26 27 28 29 30 31 32 33 33 34 36 38 39 41 42 44 45
21 21 21 21 20 20 19 19 18 18 17 17 16 15 14 14 14 13 12 12 12 12 12 11 11 11 10 10 10 10 10 10 10 9 9 9 9 9 9 9 9 9 9 10 11 11 12 11 12 13 13 13 14 15 15 16 16 16 17 19 19 20 21 22 23 22 23 24 26 27 29 31 32 33 34 34 34 34 35 36 37 38 40 41 43
22 22 22 22 22 22 21 20 20 20 19 18 18 17 17 16 15 15 14 13 13 13 13 13 12 12 12 12 12 11 11 11 11 11 10 10 10 10 10 10 10 10 10 11 11 12 13 13 12 13 13 13 14 15 16 16 17 17 18 19 19 19 20 21 20 20 21 22 25 28 31 33 34 34 34 35 34 34 35 36 37 38 39 40 42
23 23 22 22 22 23 22 21 21 21 21 20 19 19 18 17 17 16 15 14 14 14 14 14 13 13 13 13 13 12 12 12 12 12 12 11 11 11 11 11 11 12 11 11 12 13 13 14 13 13 13 14 15 16 16 16 16 16 17 17 18 19 21 21 20 20 20 22 26 29 32 33 34 35 35 35 34 35 35 36 37 38 39 40 41
23 23 23 22 22 23 23 23 23 23 22 22 21 20 19 19 18 18 17 16 15 15 15 15 14 14 14 14 14 13 13 13 13 13 12 12 12 12 12 11 11 11 11 11 12 12 13 14 15 14 14 14 15 16 16 16 16 16 16 17 18 20 21 20 19 20 22 24 26 28 30 31 32 34 35 35 34 34 34 34 35 35 36 37 39
24 24 24 23 23 24 24 23 23 23 23 22 22 21 20 20 19 19 18 18 17 17 16 16 16 15 15 15 15 14 14 14 14 14 13 13 12 12 12 12 11 11 11 11 12 12 13 14 15 15 15 14 15 15 15 15 16 16 17 19 19 20 21 20 18 19 22 25 28 29 28 28 31 33 33 33 32 33 33 33 34 34 34 34 36
25 25 25 25 24 24 24 23 23 23 23 23 23 22 22 21 20 20 19 19 19 18 18 18 17 17 17 16 16 16 16 16 15 15 14 13 13 13 13 12 12 11 12 12 12 12 13 14 15 15 14 14 14 15 14 15 16 17 18 20 20 20 21 20 18 19 21 27 33 32 26 25 29 32 31 31 31 31 33 34 35 35 35 35 34
26 26 26 25 25 24 24 24 23 23 23 23 23 23 23 22 21 20 20 20 19 19 18 18 18 18 18 18 17 17 17 17 17 16 15 14 13 13 13 12 12 12 12 11 11 12 13 13 14 14 14 14 14 14 15 16 17 16 17 19 20 21 22 21 19 19 21 26 31 30 25 22 25 29 30 31 32 32 35 37 38 37 37 36 35
27 27 26 26 25 25 24 24 23 23 23 23 23 24 24 23 22 21 21 20 20 19 18 18 18 18 18 18 18 18 19 19 19 18 17 16 15 13 12 12 12 12 12 12 12 12 12 13 13 13 13 14 14 14 15 16 17 17 16 16 17 20 23 24 22 19 18 21 24 25 24 21 23 29 31 32 33 34 35 37 36 35 34 34 34
27 27 27 26 25 25 24 24 24 24 24 24 25 27 26 25 23 22 21 21 20 20 19 18 18 18 18 18 18 18 19 20 21 21 21 21 20 18 15 14 13 12 12 12 13 13 13 13 13 13 14 15 14 14 14 16 18 16 13 13 16 20 22 24 23 17 13 15 19 22 25 23 24 30 32 31 32 33 32 32 30 30 32 34 35
27 27 27 27 26 26 25 25 25 25 25 25 27 29 30 27 24 22 21 21 20 20 20 19 19 18 18 18 18 18 18 18 20 22 24 24 24 24 23 21 19 16 14 14 13 13 13 14 14 14 15 16 15 14 15 17 17 14 13 14 16 20 21 21 22 20 16 17 20 24 29 25 21 25 29 30 31 31 30 31 31 31 33 34 35
27 27 27 27 27 26 25 25 25 25 25 25 27 30 31 31 28 23 20 20 20 20 20 20 19 19 18 18 18 18 18 18 19 21 23 24 25 24 24 23 21 20 20 20 18 16 14 14 14 15 16 17 17 15 15 16 17 16 16 15 16 19 21 20 21 22 23 26 26 26 28 23 17 20 26 29 29 29 29 32 33 33 33 33 34
27 26 26 27 27 26 25 25 25 25 25 26 28 29 31 33 32 27 21 19 20 20 20 20 20 19 19 19 18 18 18 18 19 19 20 21 21 22 20 19 19 18 19 21 22 22 19 16 16 16 17 17 18 17 15 16 18 17 15 16 17 18 20 20 21 23 27 30 27 24 25 23 20 22 26 28 29 30 31 32 32 33 34 36 35
27 27 27 27 27 27 26 25 24 24 25 26 28 29 30 31 33 32 26 20 19 20 20 20 20 20 20 20 19 19 18 18 18 18 18 18 18 18 17 17 18 18 17 16 17 18 20 20 19 18 17 18 20 20 17 16 16 17 18 20 20 19 20 21 22 25 26 23 20 21 23 25 27 27 27 27 29 31 32 32 33 33 33 32 31
27 26 26 26 26 27 27 26 24 23 23 25 26 28 30 30 31 32 29 23 19 19 19 20 20 20 20 20 19 19 19 19 20 19 19 18 16 16 15 15 16 16 16 15 15 15 16 18 20 19 19 20 21 21 19 17 18 22 24 23 20 20 20 19 19 20 18 17 18 21 23 27 29 28 28 28 29 31 32 32 32 31 28 27 27
26 25 25 25 26 26 26 26 26 24 23 24 25 26 28 29 29 31 31 26 21 19 19 20 20 20 20 20 19 19 19 19 20 21 22 19 16 15 14 14 14 15 15 15 16 16 16 16 18 18 18 19 21 23 23 23 24 25 23 19 17 17 17 17 17 15 15 19 21 20 21 24 26 27 30 30 29 30 32 30 27 26 28 30 32
26 25 25 25 25 26 26 26 26 25 24 25 25 25 27 27 27 30 31 26 21 20 20 19 20 20 20 21 20 19 19 20 20 21 23 22 18 15 14 14 14 14 14 14 15 16 18 18 18 17 17 19 21 22 24 25 24 21 18 16 15 15 15 16 15 16 20 21 18 18 21 23 24 26 29 29 28 28 29 25 22 24 29 31 30
26 26 25 24 24 25 26 26 26 26 25 26 27 27 28 28 28 29 28 24 21 20 20 19 19 19 20 22 23 22 20 20 20 21 22 22 19 16 15 14 14 14 13 13 13 13 14 16 17 17 17 18 19 19 20 21 17 14 13 15 14 14 15 15 16 19 21 17 16 22 25 23 23 25 26 26 26 24 23 22 23 27 30 28 27
26 25 25 24 24 24 25 26 27 26 26 27 28 29 29 30 30 29 26 22 20 20 19 19 19 20 20 21 24 26 24 21 20 20 21 22 20 17 15 14 14 14 13 12 12 9 8 10 13 15 16 17 17 17 17 15 12 11 12 13 12 12 14 17 18 18 15 12 17 25 24 21 22 24 23 22 20 19 21 23 26 31 31 28 27
Wind_Direction
129 126 129 133 135 137 136 133 137 142 135 140 145 131 130 131 129 134 128 125 129 127 123 116 119 116 111 111 111 110 106 107 112 113 115 124 132 132 131 132 130 130 131 133 133 127 126 125 124 122 118 115 113 111 109 110 105 101 96 85 74 64 35 11 1 359 360 354 353 347 340 335 331 331 331 331 330 331 334 335 338 340 342 342 342
125 126 136 139 139 137 139 138 127 130 132 129 139 133 132 139 138 142 136 135 131 124 134 145 132 123 118 119 114 111 108 108 112 117 124 128 133 134 129 131 133 133 132 135 137 133 131 132 134 131 128 123 120 121 120 120 123 113 105 133 282 308 311 317 328 333 336 333 332 329 323 321 319 318 318 320 321 322 325 328 330 332 335 335 337
122 131 142 143 145 150 154 141 114 125 143 128 137 150 150 150 152 158 148 146 143 135 168 179 144 127 121 116 115 110 109 116 121 126 130 130 135 136 133 136 139 141 138 134 137 138 138 141 145 146 144 142 145 150 151 159 165 171 233 258 281 287 293 301 304 308 309 308 309 310 309 310 311 312 313 313 313 315 317 321 324 326 329 328 331
121 134 141 140 141 147 153 147 129 136 154 148 152 154 152 154 152 153 143 138 146 147 168 161 134 140 128 114 115 109 109 119 113 114 119 129 141 142 141 145 143 150 154 145 141 142 145 148 152 154 152 153 162 168 169 181 195 204 239 260 274 285 294 296 296 298 298 299 301 303 305 306 308 312 313 313 313 314 314 317 322 324 325 327 328
129 132 133 127 125 140 146 142 144 148 161 166 161 152 148 150 141 153 157 147 146 139 133 129 135 153 129 109 110 106 111 116 107 114 122 133 143 141 143 149 148 154 165 166 162 162 163 162 161 162 162 164 167 173 179 191 213 220 232 243 254 271 286 292 294 297 297 300 304 306 308 308 309 312 313 314 313 313 314 315 319 320 322 326 327
135 136 134 125 119 130 130 129 139 141 149 153 148 149 151 148 140 157 173 160 145 136 136 146 143 134 117 108 112 112 114 113 112 125 128 130 138 142 145 147 151 162 168 170 171 176 185 187 184 185 185 184 185 189 194 206 226 238 242 250 263 273 283 291 291 295 298 300 305 308 311 309 309 312 313 314 312 310 312 312 313 316 319 325 327
139 132 124 126 125 117 108 115 117 104 115 117 113 138 144 141 145 151 152 143 138 136 141 150 136 122 119 115 115 117 113 112 121 132 134 136 141 149 152 148 155 168 174 175 181 185 196 203 198 199 203 204 206 210 213 220 236 245 249 260 274 281 284 286 285 290 294 295 301 303 304 305 306 308 310 310 308 307 310 310 312 317 322 326 326
142 142 133 117 112 103 99 108 104 90 98 99 93 116 118 120 136 139 136 142 145 138 134 135 128 123 123 116 111 111 111 119 130 132 136 145 151 154 158 160 163 175 187 189 193 191 196 206 204 202 207 213 218 222 225 228 239 246 253 264 273 279 281 280 280 282 283 283 288 292 294 296 299 303 306 307 306 307 308 310 312 315 321 323 324
147 151 150 107 106 101 105 110 105 102 99 87 90 101 105 111 122 124 131 148 148 140 137 135 134 134 131 120 111 110 113 116 121 126 136 149 157 159 163 168 168 180 194 198 197 191 193 200 200 200 207 215 218 222 230 236 246 248 251 257 261 268 272 275 278 277 276 275 278 284 288 289 293 299 303 304 304 307 307 306 308 310 315 313 321
161 161 158 120 121 107 108 108 96 104 105 90 93 97 104 113 122 125 125 120 117 128 133 133 141 147 139 125 115 114 113 113 116 127 145 152 155 163 165 168 173 182 191 197 194 187 191 197 193 195 201 215 220 219 224 236 247 248 245 244 247 254 259 267 272 274 271 271 275 279 281 284 290 294 298 302 302 306 305 301 302 305 303 300 309
170 172 185 136 117 99 98 100 93 95 94 90 91 96 103 107 117 127 129 116 106 115 122 128 142 140 130 126 123 121 114 121 140 137 147 150 155 170 169 168 180 187 188 193 189 178 188 198 190 196 203 209 222 228 230 235 239 241 239 237 237 239 244 254 259 262 262 266 270 269 274 280 285 290 295 301 304 305 302 298 303 302 299 293 301
174 178 194 165 120 115 115 111 99 89 75 77 75 81 92 97 112 126 135 135 131 130 129 129 129 120 124 130 121 126 131 130 174 165 153 149 159 171 167 164 176 185 184 184 185 175 177 179 177 199 220 232 251 261 245 238 237 239 240 241 241 237 238 245 252 257 258 263 264 266 277 279 281 293 299 302 302 305 302 303 305 297 291 294 303
183 182 187 179 137 126 129 120 106 97 83 74 67 71 78 89 110 128 137 142 144 140 127 121 140 142 146 146 127 142 161 170 202 186 163 153 160 162 161 166 169 176 177 167 184 193 168 155 169 177 196 243 276 287 265 253 246 240 242 248 251 247 245 245 253 265 266 264 265 269 277 275 278 292 297 300 301 302 302 304 305 297 294 299 300
189 190 188 190 174 138 134 128 117 108 97 89 79 73 73 87 116 132 133 136 122 115 121 166 192 157 126 134 153 142 159 205 216 193 165 151 153 155 161 170 164 162 168 161 175 182 148 141 154 152 161 227 249 265 278 262 246 249 260 264 261 260 258 250 245 258 269 268 266 268 265 263 277 288 291 295 297 301 302 301 302 297 298 295 289
193 196 196 200 198 178 153 141 130 115 111 107 91 85 86 94 119 129 139 149 128 109 134 248 285 115 118 136 153 136 171 216 211 194 162 147 159 159 157 170 155 149 160 154 158 144 121 138 149 161 184 209 219 241 253 234 246 270 280 273 267 268 266 257 243 243 256 263 263 266 262 260 271 283 288 290 292 296 295 297 297 292 290 286 284
197 199 201 204 204 198 178 163 151 131 127 125 111 106 104 111 131 132 150 156 139 131 141 92 14 58 125 144 109 123 119 141 148 173 156 144 161 141 132 158 134 126 158 130 124 141 142 158 156 168 195 210 229 240 234 237 267 295 298 280 267 268 269 261 250 242 240 247 261 269 265 266 275 281 287 288 289 290 288 285 282 281 280 279 276
199 200 204 202 200 201 189 183 169 148 148 143 132 129 113 113 138 146 145 131 131 132 133 127 88 64 86 93 89 90 44 70 89 26 355 111 131 112 101 147 129 118 170 130 127 165 169 168 169 187 200 200 218 231 228 240 271 294 297 290 275 272 280 274 263 255 245 241 256 266 263 265 275 281 283 284 283 280 277 273 269 271 271 269 267
201 200 203 200 198 200 195 197 184 163 172 167 151 152 140 130 137 145 137 109 118 133 138 134 120 125 146 134 74 58 46 32 60 45 12 30 73 124 126 147 134 129 156 166 174 180 176 173 179 191 198 204 210 220 227 226 233 233 250 266 272 278 285 283 276 269 262 252 253 262 266 266 270 275 276 274 273 271 269 266 263 265 265 265 264
201 201 201 201 198 199 198 201 198 179 179 178 170 157 138 139 140 143 141 132 131 140 146 140 141 177 189 160 101 58 62 31 37 76 60 30 360 189 149 149 157 163 167 189 188 172 169 196 203 193 192 205 209 220 228 220 229 235 242 253 266 279 282 280 281 276 271 268 264 266 269 267 267 268 268 267 267 266 264 262 259 260 262 263 262
200 200 200 202 200 201 202 202 204 191 183 187 185 161 138 140 144 148 150 147 146 151 153 148 155 163 153 133 91 62 68 55 50 45 27 50 42 11 106 128 165 176 164 188 175 165 175 196 226 202 195 206 208 222 229 222 227 239 252 263 270 278 280 278 277 274 271 269 268 268 267 267 265 264 263 263 263 262 261 258 257 257 259 260 260
198 197 195 201 202 203 204 203 205 196 190 195 185 168 158 155 156 158 161 159 154 152 155 177 178 129 122 124 98 86 76 64 96 119 22 34 60 65 97 93 39 40 14 336 69 297 199 185 215 232 216 210 205 217 227 227 228 227 242 264 280 280 280 276 271 268 266 263 262 262 262 262 261 262 262 260 260 260 258 256 254 254 255 256 256
198 198 196 200 203 204 206 205 203 197 195 198 180 173 177 174 171 167 166 167 162 158 160 172 172 110 123 142 157 153 118 86 172 152 96 22 321 318 128 123 109 113 297 322 352 303 276 222 237 240 223 210 208 219 227 229 233 230 241 263 284 283 277 273 269 266 261 259 257 256 256 257 257 259 260 259 258 256 254 253 252 251 251 252 252
203 203 200 201 203 204 207 205 202 197 193 195 189 187 188 180 175 173 171 169 169 170 169 169 166 159 165 168 185 200 159 174 208 100 94 10 339 311 340 53 51 114 153 286 276 266 262 256 258 252 241 242 236 236 236 237 237 237 249 267 276 274 272 268 264 263 261 259 258 256 256 257 257 258 258 258 258 255 254 252 251 250 250 250 251
210 209 204 202 203 205 208 206 203 200 194 194 197 199 197 177 170 177 181 177 177 179 180 183 180 185 196 190 194 198 172 194 238 123 160 84 16 292 349 38 359 350 58 294 266 262 258 253 251 243 240 245 247 248 246 244 243 247 258 271 272 266 265 265 264 264 263 262 262 261 260 259 259 260 259 259 258 257 256 254 253 253 251 251 251
210 212 208 203 202 203 206 206 204 202 197 195 194 200 207 186 174 183 189 185 185 185 188 193 192 197 211 204 195 189 174 185 191 205 199 147 212 275 357 15 309 328 24 320 295 286 256 230 226 233 241 249 248 248 249 248 249 256 263 268 270 269 265 264 266 267 266 266 265 263 262 261 260 260 260 260 260 260 259 258 256 255 254 253 252
208 211 210 206 204 203 204 205 205 203 199 198 196 197 204 202 194 196 198 196 193 192 194 196 198 204 214 217 210 200 191 187 175 202 237 200 230 297 4 334 301 318 351 251 274 281 244 197 206 217 225 246 250 242 244 250 255 262 265 262 265 272 272 271 270 269 268 267 265 264 263 263 262 262 262 262 262 262 262 261 260 258 256 255 254
208 208 206 204 205 204 203 204 204 202 199 200 200 200 202 205 206 208 209 205 200 201 203 201 201 203 204 211 225 216 197 211 193 197 272 305 325 350 7 309 303 318 333 320 275 252 223 216 215 201 207 229 240 244 243 248 256 261 265 264 263 269 274 276 274 271 270 268 267 268 267 266 266 265 265 265 265 264 263 262 261 259 258 256 255
205 205 203 201 203 204 203 203 202 202 203 202 203 203 204 205 207 213 216 210 206 208 209 209 209 208 205 207 224 235 212 216 251 249 290 314 327 328 292 273 294 307 325 329 306 278 253 253 217 190 204 223 231 252 255 255 261 262 266 271 269 267 270 273 275 274 273 272 271 270 270 270 270 269 268 268 267 265 264 263 262 260 259 258 257
203 203 202 199 201 203 204 204 203 203 205 205 205 205 205 208 209 211 217 215 210 211 213 217 215 213 214 208 212 233 233 224 246 241 243 265 262 256 254 256 266 284 302 307 306 312 308 299 258 192 199 226 243 264 265 256 261 263 263 267 267 265 266 270 274 276 276 276 274 272 270 269 269 269 268 268 267 266 265 264 262 262 261 259 258
203 200 200 200 201 202 203 204 203 204 206 206 207 207 207 210 211 212 215 215 213 214 216 221 222 220 220 215 210 220 224 221 224 226 229 236 240 244 248 248 243 250 273 286 289 294 293 298 295 243 224 259 263 270 268 258 263 267 264 265 267 269 269 269 270 272 275 276 276 274 272 269 268 267 267 267 267 267 266 265 264 263 262 260 259
202 198 197 199 201 201 202 204 204 204 205 206 206 207 209 212 213 213 212 210 213 217 218 220 222 221 222 223 219 221 228 230 228 226 225 227 236 240 238 241 243 243 256 268 272 283 286 289 296 292 286 284 277 274 272 267 269 270 269 269 272 277 280 278 277 276 276 278 278 279 277 275 273 270 269 268 267 267 267 266 265 263 262 261 260
200 197 197 199 200 201 203 206 206 205 205 206 207 207 210 213 216 218 212 207 211 217 219 222 222 220 222 224 223 223 229 232 235 235 231 229 235 243 241 240 243 242 245 254 259 270 278 282 286 288 287 285 283 280 277 276 274 272 274 277 280 284 286 287 287 286 286 286 285 285 285 283 281 278 275 273 271 270 270 269 268 266 264 263 261
199 198 198 200 200 201 204 207 208 208 206 206 207 208 211 214 216 219 217 211 212 216 219 223 225 224 222 222 223 225 227 229 233 237 237 234 230 236 243 242 245 246 241 246 259 271 277 279 280 283 285 284 283 280 278 279 278 277 278 281 284 285 285 286 288 287 289 290 291 291 290 288 287 284 281 279 278 277 276 274 273 271 270 267 265
199 199 199 200 201 201 203 205 207 208 207 206 207 208 211 213 214 217 218 214 214 217 220 222 224 225 224 224 225 225 227 231 235 238 241 242 237 237 238 239 245 249 245 246 258 271 279 283 284 285 286 284 283 282 282 283 284 283 280 279 280 280 280 282 284 286 290 293 293 293 292 290 289 287 285 283 281 280 279 277 274 273 272 270 268
199 201 201 201 201 200 202 203 203 206 207 206 208 209 211 213 215 217 217 216 217 219 221 222 223 224 224 225 227 226 228 230 233 238 242 245 248 249 247 247 249 253 255 255 259 268 278 284 286 287 288 288 287 288 288 287 287 286 283 282 282 283 282 283 284 286 290 293 294 295 295 294 293 291 288 286 284 283 282 281 279 277 275 272 271
200 200 202 202 200 200 201 201 200 202 204 205 207 208 210 212 215 217 218 218 219 220 223 224 224 224 225 226 228 228 229 231 232 235 239 242 245 248 249 251 252 255 258 258 258 263 272 279 281 282 284 286 287 288 289 289 289 287 287 288 287 285 284 285 287 289 291 295 300 302 301 300 299 296 294 292 290 288 287 286 285 283 280 277 275
201 199 200 202 200 199 200 200 199 200 201 203 205 207 209 211 213 216 217 219 221 222 223 225 225 225 226 227 229 228 228 231 232 233 236 239 240 242 246 248 249 253 253 254 256 258 265 274 279 281 283 283 285 287 289 290 291 293 292 290 288 286 286 288 290 293 296 300 304 305 303 302 299 297 297 296 295 292 289 287 285 283 280 279 278
201 200 199 200 201 200 200 200 200 199 200 201 203 205 208 210 212 215 217 218 221 223 224 225 226 226 227 228 230 230 230 230 232 234 235 237 238 241 245 246 250 254 253 253 255 257 263 269 275 280 282 282 285 288 289 289 291 295 295 291 287 287 289 291 292 293 295 298 300 299 297 297 296 295 296 298 297 295 291 287 285 282 280 279 278
201 201 199 199 200 201 200 201 201 200 200 201 202 204 207 209 211 213 216 217 218 221 223 225 226 226 227 228 229 228 228 228 231 234 235 236 238 241 242 246 251 253 256 258 257 259 264 268 272 277 281 285 289 291 293 292 289 288 291 293 294 295 295 295 297 296 292 294 299 298 296 297 300 299 299 300 299 297 294 291 288 285 283 281 279
201 202 201 199 199 201 201 201 201 201 201 202 203 203 205 207 209 211 214 216 217 219 222 224 227 229 229 230 230 229 227 227 228 231 235 236 238 241 242 245 248 249 253 258 260 261 265 269 274 278 283 286 287 288 291 290 287 289 294 297 300 303 304 303 303 302 295 294 298 301 301 304 304 302 302 301 300 298 298 297 294 290 288 286 283
201 202 203 200 199 202 202 201 202 203 203 204 204 203 203 204 207 210 211 213 216 218 220 223 226 229 231 233 234 232 229 226 227 229 232 232 233 237 242 244 247 248 250 253 258 262 263 267 273 276 279 280 280 283 286 288 293 299 302 303 305 308 310 309 306 304 298 294 296 297 300 305 304 302 301 300 299 300 299 297 297 296 296 295 292
201 202 204 204 202 202 203 203 203 204 206 207 206 205 204 203 204 207 210 211 214 216 218 222 226 228 231 234 237 238 234 229 229 233 236 235 235 238 242 243 242 245 249 253 255 257 260 265 271 275 278 279 281 286 290 294 298 301 305 311 315 316 316 312 309 310 305 300 301 299 299 303 302 300 299 297 297 299 297 295 297 299 300 300 299
201 202 204 205 205 204 204 205 205 206 209 210 209 207 207 206 204 205 209 209 212 215 216 220 225 228 231 234 237 240 238 231 230 237 243 245 246 250 253 252 246 242 245 252 257 260 263 267 270 275 279 280 284 289 292 296 300 304 311 321 323 319 316 312 311 312 311 310 309 302 298 301 299 295 295 296 297 299 298 298 300 299 299 299 298
200 202 203 205 207 207 206 206 207 209 211 212 212 210 209 210 207 205 209 211 211 214 216 218 222 226 230 233 236 238 238 233 229 235 244 249 252 255 258 259 255 249 244 246 251 255 262 271 275 276 278 282 286 287 288 295 303 307 309 316 319 313 309 306 303 302 307 313 311 301 298 303 304 297 297 300 302 303 302 302 304 305 304 304 302
198 201 203 204 206 208 209 209 210 212 214 214 213 212 212 213 211 208 209 214 214 215 217 218 221 224 227 230 234 236 239 236 231 231 239 247 253 256 256 256 257 256 251 247 247 248 253 262 269 272 274 279 281 280 283 295 301 301 301 305 310 307 300 297 293 294 307 314 308 298 298 306 313 309 304 305 306 306 305 305 307 309 308 307 307
198 200 203 204 206 209 211 212 213 214 217 217 215 214 214 216 215 213 213 217 219 219 220 221 222 223 225 227 229 231 234 236 233 230 231 236 244 251 252 252 254 259 259 253 247 245 245 247 252 260 269 273 274 277 285 292 292 293 298 302 304 299 290 287 288 292 303 311 306 298 301 310 316 314 309 311 312 310 310 310 312 314 314 314 318
199 200 203 205 206 208 210 213 215 216 218 220 217 215 216 218 218 217 217 221 225 225 223 223 223 224 224 225 227 228 229 231 231 230 229 229 232 237 241 245 250 253 253 252 250 249 245 242 245 255 264 269 273 278 284 287 288 295 303 304 301 294 285 286 292 293 300 314 317 310 305 309 317 316 313 317 318 313 312 313 314 317 318 318 325
201 200 203 205 206 208 210 213 216 218 220 221 220 216 217 218 218 218 219 222 228 230 227 225 224 225 224 224 226 228 228 229 230 229 228 227 227 229 233 237 244 248 250 251 253 254 253 252 254 258 262 266 272 278 284 288 293 299 304 303 300 297 294 298 304 308 317 324 324 321 313 313 322 321 316 318 319 314 313 314 316 319 316 314 319
203 202 204 207 208 209 210 211 214 217 220 222 221 218 217 215 214 216 218 220 226 230 230 228 225 225 226 225 225 226 227 228 229 229 229 228 226 230 235 238 245 251 252 254 258 258 256 256 258 259 259 264 270 277 285 291 296 302 304 302 305 311 312 313 315 320 323 324 329 337 331 323 325 323 315 315 317 314 312 315 321 324 320 318 322
206 206 206 208 209 210 211 212 212 215 221 223 221 219 217 215 214 214 215 216 222 226 228 229 227 227 228 227 226 226 227 228 229 230 231 229 226 227 235 240 246 249 249 253 259 257 250 246 248 249 250 259 269 277 284 289 295 301 297 295 304 313 314 315 316 315 317 323 339 343 335 325 323 321 315 314 314 313 313 317 322 326 325 324 324
208 210 210 210 211 212 213 215 214 214 219 224 222 220 218 217 216 213 210 212 217 221 224 226 227 228 231 231 229 228 227 227 228 230 232 230 225 224 231 237 241 244 247 250 248 240 229 232 241 245 250 262 275 282 283 283 286 288 282 279 288 301 308 311 310 311 315 328 339 339 334 324 320 319 319 320 317 315 317 320 323 326 325 324 323